Time,TemperatureF,DewpointF,PressureIn,WindDirection,WindDirectionDegrees,WindSpeedMPH,WindSpeedGustMPH,Humidity,HourlyPrecipIn,Conditions,Clouds,dailyrainin,SoftwareType,DateUTC
2014-02-08 00:00:00,18.0,14.4,29.94,North,0,0.0,0.0,86,0.00,,,0.00,WUHU216HW,2014-02-08 08:00:00,
2014-02-08 00:05:00,18.0,14.4,29.94,North,0,0.0,0.0,86,0.00,,,0.00,WUHU216HW,2014-02-08 08:05:00,
2014-02-08 00:10:00,18.0,14.4,29.94,North,0,0.0,0.0,86,0.00,,,0.00,WUHU216HW,2014-02-08 08:10:00,
2014-02-08 00:30:00,18.2,14.9,29.95,North,0,0.0,0.0,87,0.00,,,0.00,WUHU216HW,2014-02-08 08:30:00,
2014-02-08 00:35:00,18.2,14.9,29.95,North,0,0.0,0.0,87,0.00,,,0.00,WUHU216HW,2014-02-08 08:35:00,
2014-02-08 00:40:00,18.2,14.9,29.95,North,0,0.0,0.0,87,0.00,,,0.00,WUHU216HW,2014-02-08 08:40:00,
2014-02-08 01:00:00,18.4,15.0,29.97,North,0,0.0,0.0,87,0.00,,,0.00,WUHU216HW,2014-02-08 09:00:00,
2014-02-08 01:05:00,18.4,15.0,29.97,North,0,0.0,0.0,87,0.00,,,0.00,WUHU216HW,2014-02-08 09:05:00,
2014-02-08 01:10:00,18.4,15.0,29.97,North,0,0.0,0.0,87,0.00,,,0.00,WUHU216HW,2014-02-08 09:10:00,
2014-02-08 01:30:00,18.7,15.4,29.98,North,0,0.0,0.0,87,0.00,,,0.00,WUHU216HW,2014-02-08 09:30:00,
2014-02-08 01:35:00,18.7,15.4,29.98,North,0,0.0,0.0,87,0.00,,,0.00,WUHU216HW,2014-02-08 09:35:00,
2014-02-08 01:40:00,18.7,15.4,29.98,North,0,0.0,0.0,87,0.00,,,0.00,WUHU216HW,2014-02-08 09:40:00,
2014-02-08 02:00:00,19.3,15.9,30.01,North,0,0.0,0.0,87,0.00,,,0.00,WUHU216HW,2014-02-08 10:00:00,
2014-02-08 02:05:00,19.3,15.9,30.01,North,0,0.0,0.0,87,0.00,,,0.00,WUHU216HW,2014-02-08 10:05:00,
2014-02-08 02:10:00,19.3,15.9,30.01,North,0,0.0,0.0,87,0.00,,,0.00,WUHU216HW,2014-02-08 10:10:00,
2014-02-08 02:30:00,20.0,16.1,30.02,North,0,0.0,0.0,85,0.00,,,0.00,WUHU216HW,2014-02-08 10:30:00,
2014-02-08 02:35:00,20.2,16.3,30.02,North,0,0.0,0.0,85,0.00,,,0.00,WUHU216HW,2014-02-08 10:35:00,
2014-02-08 02:40:00,20.2,16.3,30.02,North,0,0.0,0.0,85,0.00,,,0.00,WUHU216HW,2014-02-08 10:40:00,
2014-02-08 03:00:00,20.5,16.1,30.03,North,0,0.0,0.0,83,0.00,,,0.00,WUHU216HW,2014-02-08 11:00:00,
2014-02-08 03:05:00,20.5,16.1,30.03,North,0,0.0,0.0,83,0.00,,,0.00,WUHU216HW,2014-02-08 11:05:00,
2014-02-08 03:10:00,20.5,16.1,30.03,North,0,0.0,0.0,83,0.00,,,0.00,WUHU216HW,2014-02-08 11:10:00,
2014-02-08 03:30:00,20.9,16.7,30.04,North,0,0.0,0.0,84,0.00,,,0.00,WUHU216HW,2014-02-08 11:30:00,
2014-02-08 03:35:00,20.7,16.6,30.04,North,0,0.0,0.0,84,0.00,,,0.00,WUHU216HW,2014-02-08 11:35:00,
2014-02-08 03:40:00,20.7,16.6,30.04,North,0,0.0,0.0,84,0.00,,,0.00,WUHU216HW,2014-02-08 11:40:00,
2014-02-08 04:00:00,20.9,16.5,30.06,North,0,0.0,0.0,83,0.00,,,0.00,WUHU216HW,2014-02-08 12:00:00,
2014-02-08 04:05:00,20.9,16.5,30.06,North,0,0.0,0.0,83,0.00,,,0.00,WUHU216HW,2014-02-08 12:05:00,
2014-02-08 04:10:00,20.9,16.5,30.06,North,0,0.0,0.0,83,0.00,,,0.00,WUHU216HW,2014-02-08 12:10:00,
2014-02-08 04:30:00,20.9,16.2,30.09,North,0,0.0,0.0,82,0.00,,,0.00,WUHU216HW,2014-02-08 12:30:00,
2014-02-08 04:35:00,20.9,16.2,30.09,North,0,0.0,0.0,82,0.00,,,0.00,WUHU216HW,2014-02-08 12:35:00,
2014-02-08 04:40:00,20.9,16.2,30.09,North,0,0.0,0.0,82,0.00,,,0.00,WUHU216HW,2014-02-08 12:40:00,
2014-02-08 05:00:00,20.9,16.2,30.10,North,0,0.0,0.0,82,0.00,,,0.00,WUHU216HW,2014-02-08 13:00:00,
2014-02-08 05:05:00,20.9,16.2,30.10,North,0,0.0,0.0,82,0.00,,,0.00,WUHU216HW,2014-02-08 13:05:00,
2014-02-08 05:10:00,20.9,16.2,30.10,North,0,0.0,0.0,82,0.00,,,0.00,WUHU216HW,2014-02-08 13:10:00,
2014-02-08 05:30:00,20.7,16.0,30.11,North,0,0.0,0.0,82,0.00,,,0.00,WUHU216HW,2014-02-08 13:30:00,
2014-02-08 05:35:00,20.7,16.0,30.11,North,0,0.0,0.0,82,0.00,,,0.00,WUHU216HW,2014-02-08 13:35:00,
2014-02-08 05:40:00,20.7,16.0,30.11,North,0,0.0,0.0,82,0.00,,,0.00,WUHU216HW,2014-02-08 13:40:00,
2014-02-08 06:00:00,20.9,16.2,30.11,North,0,0.0,0.0,82,0.00,,,0.00,WUHU216HW,2014-02-08 14:00:00,
2014-02-08 06:05:00,21.1,16.4,30.11,North,0,0.0,0.0,82,0.00,,,0.00,WUHU216HW,2014-02-08 14:05:00,
2014-02-08 06:10:00,21.1,16.4,30.11,North,0,0.0,0.0,82,0.00,,,0.00,WUHU216HW,2014-02-08 14:10:00,
2014-02-08 06:30:00,20.9,16.2,30.12,North,0,0.0,0.0,82,0.00,,,0.00,WUHU216HW,2014-02-08 14:30:00,
2014-02-08 06:35:00,20.9,16.2,30.12,North,0,0.0,0.0,82,0.00,,,0.00,WUHU216HW,2014-02-08 14:35:00,
2014-02-08 06:40:00,20.9,16.2,30.12,North,0,0.0,0.0,82,0.00,,,0.00,WUHU216HW,2014-02-08 14:40:00,
2014-02-08 07:00:00,20.9,15.9,30.13,North,0,0.0,0.0,81,0.00,,,0.00,WUHU216HW,2014-02-08 15:00:00,
2014-02-08 07:05:00,20.9,15.9,30.13,North,0,0.0,0.0,81,0.00,,,0.00,WUHU216HW,2014-02-08 15:05:00,
2014-02-08 07:10:00,20.9,15.9,30.13,North,0,0.0,0.0,81,0.00,,,0.00,WUHU216HW,2014-02-08 15:10:00,
2014-02-08 07:30:00,21.1,16.1,30.16,North,0,0.0,0.0,81,0.00,,,0.00,WUHU216HW,2014-02-08 15:30:00,
2014-02-08 07:35:00,21.1,16.1,30.16,North,0,0.0,0.0,81,0.00,,,0.00,WUHU216HW,2014-02-08 15:35:00,
2014-02-08 07:40:00,21.1,16.1,30.16,North,0,0.0,0.0,81,0.00,,,0.00,WUHU216HW,2014-02-08 15:40:00,
2014-02-08 08:00:00,21.6,16.4,30.16,North,0,0.0,0.0,80,0.00,,,0.00,WUHU216HW,2014-02-08 16:00:00,
2014-02-08 08:05:00,21.8,16.6,30.16,North,0,0.0,0.0,80,0.00,,,0.00,WUHU216HW,2014-02-08 16:05:00,
2014-02-08 08:10:00,21.8,16.6,30.16,North,0,0.0,0.0,80,0.00,,,0.00,WUHU216HW,2014-02-08 16:10:00,
2014-02-08 08:30:00,22.3,16.5,30.17,North,0,0.0,0.0,78,0.00,,,0.00,WUHU216HW,2014-02-08 16:30:00,
2014-02-08 08:35:00,22.3,16.5,30.17,North,0,0.0,0.0,78,0.00,,,0.00,WUHU216HW,2014-02-08 16:35:00,
2014-02-08 08:40:00,22.3,16.5,30.17,North,0,0.0,0.0,78,0.00,,,0.00,WUHU216HW,2014-02-08 16:40:00,
2014-02-08 09:00:00,24.1,18.3,30.18,North,0,0.0,0.0,78,0.00,,,0.00,WUHU216HW,2014-02-08 17:00:00,
2014-02-08 09:05:00,24.1,18.3,30.18,North,0,0.0,0.0,78,0.00,,,0.00,WUHU216HW,2014-02-08 17:05:00,
2014-02-08 09:10:00,24.1,18.3,30.18,North,0,0.0,0.0,78,0.00,,,0.00,WUHU216HW,2014-02-08 17:10:00,
2014-02-08 09:30:00,26.8,19.6,30.19,North,0,0.0,0.0,74,0.00,,,0.00,WUHU216HW,2014-02-08 17:30:00,
2014-02-08 09:35:00,26.8,19.6,30.19,North,0,0.0,0.0,74,0.00,,,0.00,WUHU216HW,2014-02-08 17:35:00,
2014-02-08 09:40:00,26.8,19.6,30.19,North,0,0.0,0.0,74,0.00,,,0.00,WUHU216HW,2014-02-08 17:40:00,
2014-02-08 10:00:00,28.4,20.3,30.20,North,0,0.0,0.0,71,0.00,,,0.00,WUHU216HW,2014-02-08 18:00:00,
2014-02-08 10:05:00,28.4,20.3,30.20,North,0,0.0,0.0,71,0.00,,,0.00,WUHU216HW,2014-02-08 18:05:00,
2014-02-08 10:10:00,28.4,20.3,30.20,North,0,0.0,0.0,71,0.00,,,0.00,WUHU216HW,2014-02-08 18:10:00,
2014-02-08 10:30:00,29.9,20.2,30.20,North,0,0.0,0.0,67,0.00,,,0.00,WUHU216HW,2014-02-08 18:30:00,
2014-02-08 10:35:00,29.9,20.2,30.20,North,0,0.0,0.0,67,0.00,,,0.00,WUHU216HW,2014-02-08 18:35:00,
2014-02-08 10:40:00,29.9,20.2,30.20,North,0,0.0,0.0,67,0.00,,,0.00,WUHU216HW,2014-02-08 18:40:00,
2014-02-08 11:00:00,29.5,19.9,30.21,North,0,0.0,0.0,67,0.00,,,0.00,WUHU216HW,2014-02-08 19:00:00,
2014-02-08 11:05:00,29.5,19.5,30.21,North,0,0.0,0.0,66,0.00,,,0.00,WUHU216HW,2014-02-08 19:05:00,
2014-02-08 11:10:00,29.5,19.5,30.21,North,0,0.0,0.0,66,0.00,,,0.00,WUHU216HW,2014-02-08 19:10:00,
2014-02-08 11:30:00,28.4,17.1,30.21,North,0,0.0,0.0,62,0.00,,,0.00,WUHU216HW,2014-02-08 19:30:00,
2014-02-08 11:32:00,28.4,17.1,30.21,North,0,0.0,0.0,62,0.00,,,0.00,WUHU216HW,2014-02-08 19:32:00,
2014-02-08 11:37:00,28.4,17.1,30.21,North,0,0.0,0.0,62,0.00,,,0.00,WUHU216HW,2014-02-08 19:37:00,
2014-02-08 12:00:00,28.1,16.7,30.21,North,0,0.0,0.0,62,0.00,,,0.00,WUHU216HW,2014-02-08 20:00:00,
2014-02-08 12:05:00,28.1,16.7,30.21,North,0,0.0,0.0,62,0.00,,,0.00,WUHU216HW,2014-02-08 20:05:00,
2014-02-08 12:10:00,28.1,16.7,30.21,North,0,0.0,0.0,62,0.00,,,0.00,WUHU216HW,2014-02-08 20:10:00,
2014-02-08 12:30:00,28.6,17.3,30.18,North,0,0.0,0.0,62,0.00,,,0.00,WUHU216HW,2014-02-08 20:30:00,
2014-02-08 12:35:00,28.6,17.3,30.18,North,0,0.0,0.0,62,0.00,,,0.00,WUHU216HW,2014-02-08 20:35:00,
2014-02-08 12:40:00,28.6,17.3,30.18,North,0,0.0,0.0,62,0.00,,,0.00,WUHU216HW,2014-02-08 20:40:00,
2014-02-08 13:00:00,29.0,17.9,30.19,North,0,0.0,0.0,63,0.00,,,0.00,WUHU216HW,2014-02-08 21:00:00,
2014-02-08 13:05:00,29.2,18.1,30.19,North,0,0.0,0.0,63,0.00,,,0.00,WUHU216HW,2014-02-08 21:05:00,
2014-02-08 13:30:00,27.9,16.9,30.16,North,0,0.0,0.0,63,0.00,,,0.00,WUHU216HW,2014-02-08 21:30:00,
2014-02-08 13:35:00,28.1,17.1,30.16,North,0,0.0,0.0,63,0.00,,,0.00,WUHU216HW,2014-02-08 21:35:00,
2014-02-08 13:40:00,28.1,17.1,30.16,North,0,0.0,0.0,63,0.00,,,0.00,WUHU216HW,2014-02-08 21:40:00,
2014-02-08 14:00:00,28.8,17.5,30.16,North,0,0.0,0.0,62,0.00,,,0.00,WUHU216HW,2014-02-08 22:00:00,
2014-02-08 14:05:00,28.8,17.5,30.16,North,0,0.0,0.0,62,0.00,,,0.00,WUHU216HW,2014-02-08 22:05:00,
2014-02-08 14:10:00,28.8,17.5,30.16,North,0,0.0,0.0,62,0.00,,,0.00,WUHU216HW,2014-02-08 22:10:00,
2014-02-08 14:30:00,30.1,19.3,30.15,North,0,0.0,0.0,64,0.00,,,0.00,WUHU216HW,2014-02-08 22:30:00,
2014-02-08 14:35:00,30.1,19.3,30.15,North,0,0.0,0.0,64,0.00,,,0.00,WUHU216HW,2014-02-08 22:35:00,
2014-02-08 14:40:00,30.1,19.3,30.15,North,0,0.0,0.0,64,0.00,,,0.00,WUHU216HW,2014-02-08 22:40:00,
2014-02-08 15:00:00,27.9,17.6,30.13,North,0,0.0,0.0,65,0.00,,,0.00,WUHU216HW,2014-02-08 23:00:00,
2014-02-08 15:05:00,27.9,17.6,30.13,North,0,0.0,0.0,65,0.00,,,0.00,WUHU216HW,2014-02-08 23:05:00,
2014-02-08 15:10:00,27.9,17.6,30.13,North,0,0.0,0.0,65,0.00,,,0.00,WUHU216HW,2014-02-08 23:10:00,
2014-02-08 15:30:00,26.6,16.7,30.12,North,0,0.0,0.0,66,0.00,,,0.00,WUHU216HW,2014-02-08 23:30:00,
2014-02-08 15:35:00,26.6,16.7,30.12,North,0,0.0,0.0,66,0.00,,,0.00,WUHU216HW,2014-02-08 23:35:00,
2014-02-08 15:40:00,26.6,16.7,30.12,North,0,0.0,0.0,66,0.00,,,0.00,WUHU216HW,2014-02-08 23:40:00,
2014-02-08 16:00:00,25.7,16.9,30.11,North,0,0.0,0.0,69,0.00,,,0.00,WUHU216HW,2014-02-09 00:00:00,
2014-02-08 16:05:00,25.7,16.9,30.11,North,0,0.0,0.0,69,0.00,,,0.00,WUHU216HW,2014-02-09 00:05:00,
2014-02-08 16:10:00,25.7,16.9,30.11,North,0,0.0,0.0,69,0.00,,,0.00,WUHU216HW,2014-02-09 00:10:00,
2014-02-08 16:30:00,25.2,16.7,30.11,North,0,0.0,0.0,70,0.00,,,0.00,WUHU216HW,2014-02-09 00:30:00,
2014-02-08 16:35:00,25.2,16.7,30.11,North,0,0.0,0.0,70,0.00,,,0.00,WUHU216HW,2014-02-09 00:35:00,
2014-02-08 16:40:00,25.2,16.7,30.11,North,0,0.0,0.0,70,0.00,,,0.00,WUHU216HW,2014-02-09 00:40:00,
2014-02-08 17:00:00,24.3,17.2,30.08,North,0,0.0,0.0,74,0.00,,,0.00,WUHU216HW,2014-02-09 01:00:00,
2014-02-08 17:05:00,24.1,17.0,30.08,North,0,0.0,0.0,74,0.00,,,0.00,WUHU216HW,2014-02-09 01:05:00,
2014-02-08 17:10:00,24.1,17.0,30.08,North,0,0.0,0.0,74,0.00,,,0.00,WUHU216HW,2014-02-09 01:10:00,
2014-02-08 17:30:00,23.4,16.9,30.09,North,0,0.0,0.0,76,0.00,,,0.00,WUHU216HW,2014-02-09 01:30:00,
2014-02-08 17:35:00,23.4,16.9,30.09,North,0,0.0,0.0,76,0.00,,,0.00,WUHU216HW,2014-02-09 01:35:00,
2014-02-08 17:40:00,23.4,16.9,30.09,North,0,0.0,0.0,76,0.00,,,0.00,WUHU216HW,2014-02-09 01:40:00,
2014-02-08 18:00:00,23.0,17.8,30.07,North,0,0.0,0.0,80,0.00,,,0.00,WUHU216HW,2014-02-09 02:00:00,
2014-02-08 18:05:00,23.0,17.8,30.07,North,0,0.0,0.0,80,0.00,,,0.00,WUHU216HW,2014-02-09 02:05:00,
2014-02-08 18:10:00,23.0,17.8,30.07,North,0,0.0,0.0,80,0.00,,,0.00,WUHU216HW,2014-02-09 02:10:00,
2014-02-08 18:30:00,22.5,18.4,30.05,North,0,0.0,0.0,84,0.00,,,0.00,WUHU216HW,2014-02-09 02:30:00,
2014-02-08 18:35:00,22.5,18.4,30.05,North,0,0.0,0.0,84,0.00,,,0.00,WUHU216HW,2014-02-09 02:35:00,
2014-02-08 18:40:00,22.5,18.4,30.05,North,0,0.0,0.0,84,0.00,,,0.00,WUHU216HW,2014-02-09 02:40:00,
2014-02-08 19:00:00,22.3,18.5,30.06,North,0,0.0,0.0,85,0.00,,,0.00,WUHU216HW,2014-02-09 03:00:00,
2014-02-08 19:05:00,22.3,18.5,30.06,North,0,0.0,0.0,85,0.00,,,0.00,WUHU216HW,2014-02-09 03:05:00,
2014-02-08 19:10:00,22.3,18.5,30.06,North,0,0.0,0.0,85,0.00,,,0.00,WUHU216HW,2014-02-09 03:10:00,
2014-02-08 19:30:00,22.5,18.9,30.02,North,0,0.0,0.0,86,0.00,,,0.00,WUHU216HW,2014-02-09 03:30:00,
2014-02-08 19:35:00,22.5,18.9,30.02,North,0,0.0,0.0,86,0.00,,,0.00,WUHU216HW,2014-02-09 03:35:00,
2014-02-08 19:40:00,22.5,18.9,30.02,North,0,0.0,0.0,86,0.00,,,0.00,WUHU216HW,2014-02-09 03:40:00,
2014-02-08 20:00:00,22.7,19.4,30.03,North,0,0.0,0.0,87,0.00,,,0.00,WUHU216HW,2014-02-09 04:00:00,
2014-02-08 20:05:00,22.7,19.4,30.03,North,0,0.0,0.0,87,0.00,,,0.00,WUHU216HW,2014-02-09 04:05:00,
2014-02-08 20:10:00,22.7,19.4,30.03,North,0,0.0,0.0,87,0.00,,,0.00,WUHU216HW,2014-02-09 04:10:00,
2014-02-08 20:30:00,22.7,19.4,30.01,North,0,0.0,0.0,87,0.00,,,0.00,WUHU216HW,2014-02-09 04:30:00,
2014-02-08 20:35:00,22.7,19.4,30.01,North,0,0.0,0.0,87,0.00,,,0.00,WUHU216HW,2014-02-09 04:35:00,
2014-02-08 20:40:00,22.7,19.4,30.01,North,0,0.0,0.0,87,0.00,,,0.00,WUHU216HW,2014-02-09 04:40:00,
2014-02-08 21:00:00,22.9,19.5,29.99,North,0,0.0,0.0,87,0.00,,,0.00,WUHU216HW,2014-02-09 05:00:00,
2014-02-08 21:01:00,22.9,19.5,29.99,North,0,0.0,0.0,87,0.00,,,0.00,WUHU216HW,2014-02-09 05:01:00,
2014-02-08 21:06:00,22.9,19.5,29.99,North,0,0.0,0.0,87,0.00,,,0.00,WUHU216HW,2014-02-09 05:06:00,
2014-02-08 21:30:00,23.2,20.2,29.99,North,0,0.0,0.0,88,0.00,,,0.00,WUHU216HW,2014-02-09 05:30:00,
2014-02-08 21:35:00,23.0,20.0,29.99,North,0,0.0,0.0,88,0.00,,,0.00,WUHU216HW,2014-02-09 05:35:00,
2014-02-08 21:40:00,23.0,20.0,29.99,North,0,0.0,0.0,88,0.00,,,0.00,WUHU216HW,2014-02-09 05:40:00,
2014-02-08 22:00:00,23.4,20.3,29.99,North,0,0.0,0.0,88,0.00,,,0.00,WUHU216HW,2014-02-09 06:00:00,
2014-02-08 22:05:00,23.4,20.3,29.99,North,0,0.0,0.0,88,0.00,,,0.00,WUHU216HW,2014-02-09 06:05:00,
2014-02-08 22:10:00,23.4,20.3,29.99,North,0,0.0,0.0,88,0.00,,,0.00,WUHU216HW,2014-02-09 06:10:00,
2014-02-08 22:30:00,23.8,20.7,30.00,North,0,0.0,0.0,88,0.00,,,0.00,WUHU216HW,2014-02-09 06:30:00,
2014-02-08 22:35:00,23.8,20.7,30.00,North,0,0.0,0.0,88,0.00,,,0.00,WUHU216HW,2014-02-09 06:35:00,
2014-02-08 22:40:00,23.8,20.7,30.00,North,0,0.0,0.0,88,0.00,,,0.00,WUHU216HW,2014-02-09 06:40:00,
2014-02-08 23:00:00,23.8,20.7,30.00,North,0,0.0,0.0,88,0.00,,,0.00,WUHU216HW,2014-02-09 07:00:00,
2014-02-08 23:05:00,23.8,20.7,30.00,North,0,0.0,0.0,88,0.00,,,0.00,WUHU216HW,2014-02-09 07:05:00,
2014-02-08 23:10:00,23.8,20.7,30.00,North,0,0.0,0.0,88,0.00,,,0.00,WUHU216HW,2014-02-09 07:10:00,
2014-02-08 23:30:00,24.1,21.1,30.02,North,0,0.0,0.0,88,0.00,,,0.00,WUHU216HW,2014-02-09 07:30:00,
2014-02-08 23:35:00,24.1,21.3,30.02,North,0,0.0,0.0,89,0.00,,,0.00,WUHU216HW,2014-02-09 07:35:00,
2014-02-08 23:40:00,24.1,21.3,30.02,North,0,0.0,0.0,89,0.00,,,0.00,WUHU216HW,2014-02-09 07:40:00,